Skip Page Navigation
NASA JPL Caltech
NASA Logo - Jet Propulsion Laboratory + View the NASA Portal
+ Near-Earth Object (NEO) Program
Search JPL
JPL Home Earth Solar System Stars & Galaxies Technology
JPL Solar System Dynamics
BODIES ORBITS EPHEMERIDES TOOLS PHYSICAL DATA DISCOVERY FAQ SITE MAP
JPL Small-Body Database Browser
Search: [ help ]  
8736 Shigehisa (1997 AD7)
Classification: Main-belt Asteroid          SPK-ID: 2008736
Ephemeris | Orbit Diagram | Orbital Elements | Physical Parameters | Discovery Circumstances ]

[ hide orbit diagram ]
Orbit Diagram
Note: Make sure you have Java enabled on your browser to see the applet. This applet is provided as a 3D orbit visualization tool. The applet was implemented using 2-body methods, and hence should not be used for determining accurate long-term trajectories (over several years or decades) or planetary encounter circumstances. For accurate long-term ephemerides, please instead use our Horizons system.
Orbit Viewer

Additional Notes: the orbits shown in the applet are color coded. The planets are white lines, and the asteroid/comet is a blue line. The bright white line indicates the portion of the orbit that is above the ecliptic plane, and the darker portion is below the ecliptic plane. Likewise for the asteroid/comet orbit, the light blue indicates the portion above the ecliptic plane, and the dark blue the portion below the ecliptic plane.

Orbit Viewer applet originally written and kindly provided by Osamu Ajiki (AstroArts), and further modified by Ron Baalke (JPL).


Orbital Elements at Epoch 2456400.5 (2013-Apr-18.0) TDB
Reference: JPL 1 (heliocentric ecliptic J2000)
 Element Value Uncertainty (1-sigma)   Units 
e .262941303237082 6.9069e-08  
a 2.475982170853119 1.5177e-08 AU
q 1.824944192057221 1.6602e-07 AU
i 2.784444746956371 6.0003e-06 deg
node 166.1570551875543 0.00010997 deg
peri 185.2887926652721 0.00011082 deg
M 173.45564576065 1.5596e-05 deg
tp 2455714.845018163254
(2011-Jun-02.34501816)
5.7151e-05 JED
period 1423.048482387452
3.90
1.3084e-05
3.582e-08
d
yr
n .252978028827259 2.326e-09 deg/d
Q 3.127020149649018 1.9167e-08 AU
  Orbit Determination Parameters
   # obs. used (total)      1449  
   data-arc span      30513 days (83.54 yr)  
   first obs. used      1929-10-01  
   last obs. used      2013-04-16  
   planetary ephem.      DE405  
   SB-pert. ephem.      SB405-CPV-2  
   condition code      0  
   fit RMS      .49925  
   data source      ORB  
   producer      Otto Matic  
   solution date      2013-Apr-29 13:32:32  

Additional Information
 Earth MOID = .818869 AU 
 T_jup = 3.431 
[ show covariance matrix ]

Ephemeris | Orbit Diagram | Orbital Elements | Physical Parameters | Discovery Circumstances ]

Physical Parameter Table
Parameter Symbol Value Units Sigma Reference Notes
absolute magnitude H 13.2 mag n/a PDS3 (MPC 31695)  
rotation period rot_per 80.5 h n/a Asteroid Lightcurve DataBase (Rev. 2013-May-01) Published Reference List:
[Pravec, P.; Wolf, M.; Sarounova, L. (2007) http://www.asu.cas.cz/~ppravec/neo.htm]

8736 Shigehisa           Discovered 1997 Jan. 9 by T. Kobayashi at Oizumi.
Osao Shigehisa (b. 1936) has actively observed variable stars since 1952. An enthusiastic recorder of the activities of Japanese amateur astronomers, he played an important role in compiling a History of Amateur Astronomy in Japan in 1987, as well as a sequel in 1994.
NOTE: some special characters may not display properly (any characters within {} are an attempt to place the proper accent above a character)
Reference: 20080321/MPCPages.arcLast Updated: 2008-03-26

Alternate Designations
 1997 AD7 = 1929 TC = 1971 HD = 1980 XL1 = 1980 YU = 1991 NM9 
Ephemeris | Orbit Diagram | Orbital Elements | Physical Parameters | Discovery Circumstances ]
ABOUT SSD CREDITS/AWARDS PRIVACY/COPYRIGHT GLOSSARY LINKS
FirstGov 2013-May-19 09:55 UT
(server date/time)  
NASA Home Page
Site Manager:   Donald K. Yeomans
Webmaster  Alan B. Chamberlin